loading
|

SL-8 DEB, 2934

Orbit data source: Space-Track

SL-8 DEB, 2934 is space debris in LEO originally from a launch on Mon, 15 Mar 1965 UTC launched from the Tyuratam Missile And Space Complex (TTMTR). Debris objects in space refer to the collection of defunct objects orbiting the Earth. Examples of debris include non-operational satellites, rocket bodies, and fragments generated from explosions, collisions, or faulty payload assembly.

Loading next visibility...
Loading greatness...
SL-8 DEB details
Identifier
2934, 1965-020EM
Orbit
LEO
Last TLE update1 day ago
Origin
Flag of CISRVSN (CIS)
ManufacturerUnknown
MissionSpacecraft
Bus & MotorUnknown bus, Unknown motor
MassUnknown
Launch date (UTC)
1965-03-15 (60 years ago)
Launch vehicleUnknown
Launch site
Tyuratam Missile And Space Complex (TTMTR)
Object type
Payload
Rocket body
Debris
Shape & HBRUnknown
Radar Cross SectionSmall (<0.1 m²)

Expand to show TLE details & history

TLE from 1 day ago
0 SL-8 DEB
1 02934U 65020EM  24280.65958123 -.00000213  00000-0 -57944-3 0  9996
2 02934  55.5948  62.3537 0368379  81.5704 296.5107 12.50819065624709
Epoch: 2024-10-06T15:49Z
Definitive object data (Epoch: 2024-10-06T15:49:47.818Z)
Latitude11.68949°
Longitude177.21102°
Altitude1,341.157 km
Speed7.244 km/s
True Right ascension04h 41m 50s
True Declination11° 37' 36"
Sunlit
Object was in daylight at TLE epoch
Predictive object data (real-time)
Latitude-20.60276°
Longitude0.99083°
Altitude1,611.831 km
Speed6.999 km/s
Apparent Right ascension19h 24m 48s
Apparent Declination-40° 56' 32"
Sunlit
Object is in daylight
Predictive observer data (real-time)
Local Sidereal Time11:51:31
Azimuth114.13° SE
Elevation-40.529°
Doppler factor1
Orbital elements
Apogee1,749.733 km
Perigee1,172.181 km
Semi-major axis7,839.094 km
Eccentricity0.0368379
Inclination55.5948°
RAAN62.3537°
Arg. of periapsis81.5704°
True anomaly292.65697°
Mean anomaly296.5107°
Eccentric anomaly294.59148°
Mean motion3.12712 °/min
BSTAR-0.00057944
Period115.12 mins
No data available

SL-8 DEB Visibility forecast

Observer location: 39.9160978°, -105.1181434

SL-8 DEB is not visible in the next 10 days
Span
Click to sort rows by Start time (UTC) header in descending order
Start Az.
Max El. time (UTC)
Max El. Az.
Max El.
End time (UTC)
End Az.